Weather History for KMRJ - September, 2014

Change the Weather History Date:

Tuesday, September 9, 2014

  Actual Average (KLNR) Record (KLNR)
Temperature  
Mean Temperature 69 °F -  
Max Temperature 78 °F 74 °F 95 °F (2013)
Min Temperature 60 °F 51 °F 42 °F (2008)
Cooling Degree Days 4    
Growing Degree Days 19 (Base 50)    
Moisture  
Dew Point 61 °F    
Average Humidity 77    
Maximum Humidity 94    
Minimum Humidity 54    
Precipitation  
Precipitation 0.30 in - - ()
Sea Level Pressure  
Sea Level Pressure 29.91 in    
Wind  
Wind Speed 6 mph (SSE)    
Max Wind Speed 15 mph    
Max Gust Speed 21 mph    
Visibility 10 miles    
Events Rain    
Averages and records for this station are not official NWS values.
T = Trace of Precipitation, MM = Missing Value Source: NWS Daily Summary

Daily Weather History Graph

Daily Weather History Graph

Search for Another Location

Airport or City:

Trip Planner

Search our weather history database for the weather conditions in past years. The results will help you decide how hot, cold, wet, or windy it might be!

Date:

Astronomy

Sep. 09, 2014 Rise Set
Actual Time 6:34 AM CDT 7:21 PM CDT
Civil Twilight 6:05 AM CDT 7:50 PM CDT
Nautical Twilight 5:31 AM CDT 8:24 PM CDT
Astronomical Twilight 4:55 AM CDT 8:59 PM CDT
Moon 7:38 PM CDT (9/9) 7:12 AM CDT (9/9)
Length of Visible Light 13h 44m
Length of Day
12h 47m
Waxing Gibbous, 99% of the Moon is Illuminated
Sep 9
Waxing Gibbous
Sep 15
Last Quarter
Sep 24
New
Oct 1
First Quarter
Oct 8
Full

Hourly Weather History & Observations

Time (CDT) Temp. Dew Point Humidity Pressure Visibility Wind Dir Wind Speed Gust Speed Precip Events Conditions
12:15 AM 62.6 °F 55.4 °F 77% 29.98 in 10.0 mi South 4.6 mph - N/A   Scattered Clouds
12:35 AM 62.6 °F 55.4 °F 77% 29.97 in 10.0 mi SSE 5.8 mph - N/A   Mostly Cloudy
12:55 AM 62.6 °F 55.4 °F 77% 29.95 in 10.0 mi SSE 6.9 mph - N/A   Scattered Clouds
1:15 AM 62.6 °F 55.4 °F 77% 29.95 in 10.0 mi SSE 6.9 mph - N/A   Clear
1:35 AM 62.6 °F 55.4 °F 77% 29.95 in 10.0 mi South 4.6 mph - N/A   Clear
1:55 AM 62.6 °F 55.4 °F 77% 29.93 in 10.0 mi SE 5.8 mph - N/A   Clear
2:15 AM 62.6 °F 55.4 °F 77% 29.95 in 10.0 mi SSE 4.6 mph - N/A   Scattered Clouds
2:35 AM 62.6 °F 55.4 °F 77% 29.95 in 10.0 mi SSE 5.8 mph - N/A   Mostly Cloudy
2:55 AM 60.8 °F 55.4 °F 82% 29.95 in 10.0 mi SE 3.5 mph - N/A   Mostly Cloudy
3:15 AM 62.6 °F 55.4 °F 77% 29.94 in 10.0 mi Calm Calm - N/A   Scattered Clouds
3:35 AM 60.8 °F 55.4 °F 82% 29.94 in 10.0 mi SE 4.6 mph - N/A   Clear
3:55 AM 62.6 °F 57.2 °F 82% 29.93 in 10.0 mi SE 5.8 mph - N/A   Clear
4:15 AM 60.8 °F 57.2 °F 88% 29.94 in 10.0 mi SE 3.5 mph - N/A   Clear
4:35 AM 60.8 °F 57.2 °F 88% 29.94 in 10.0 mi SSE 4.6 mph - N/A   Clear
4:55 AM 60.8 °F 57.2 °F 88% 29.94 in 10.0 mi ESE 4.6 mph - N/A   Scattered Clouds
5:15 AM 60.8 °F 57.2 °F 88% 29.93 in 10.0 mi SSE 5.8 mph - N/A   Scattered Clouds
5:35 AM 60.8 °F 59.0 °F 94% 29.93 in 10.0 mi East 4.6 mph - N/A   Mostly Cloudy
6:15 AM 62.6 °F 59.0 °F 88% 29.99 in 10.0 mi Calm Calm - N/A   Scattered Clouds
6:30 AM 60.8 °F 59.0 °F 94% 29.97 in 10.0 mi South 4.6 mph - N/A   Scattered Clouds
6:55 AM 60.8 °F 59.0 °F 94% 29.95 in 10.0 mi South 6.9 mph - N/A Rain Light Rain
7:15 AM 62.6 °F 59.0 °F 88% 29.92 in 10.0 mi SE 13.8 mph 19.6 mph N/A Rain Light Rain
7:35 AM 62.6 °F 59.0 °F 88% 29.95 in 10.0 mi North 8.1 mph - N/A Rain Light Rain
7:55 AM 62.6 °F 59.0 °F 88% 29.95 in 10.0 mi ESE 3.5 mph - N/A   Scattered Clouds
8:15 AM 64.4 °F 59.0 °F 83% 29.95 in 10.0 mi NE 3.5 mph - N/A   Clear
8:35 AM 64.4 °F 60.8 °F 88% 29.94 in 10.0 mi Calm Calm - N/A   Clear
8:55 AM 64.4 °F 60.8 °F 88% 29.93 in 10.0 mi Calm Calm - N/A   Clear
9:15 AM 68.0 °F 60.8 °F 78% 29.95 in 10.0 mi Calm Calm - N/A   Clear
9:35 AM 69.8 °F 60.8 °F 73% 29.95 in 10.0 mi SSE 6.9 mph - N/A   Clear
9:55 AM 69.8 °F 60.8 °F 73% 29.95 in 10.0 mi SW 5.8 mph - N/A   Clear
10:15 AM - - N/A% - - North - - N/A   Unknown
10:35 AM 71.6 °F 59.0 °F 64% 29.95 in - South 9.2 mph - 0.10 in   Clear
11:15 AM 73.4 °F 60.8 °F 65% 29.95 in - SE 5.8 mph - N/A   Clear
11:35 AM 73.4 °F 62.6 °F 69% 29.95 in - SSE 6.9 mph - N/A   Clear
11:55 AM 75.2 °F 60.8 °F 61% 29.95 in - South 6.9 mph - N/A   Clear
12:15 PM 75.2 °F 60.8 °F 61% 29.94 in - SSE 10.4 mph - N/A   Clear
12:35 PM 77.0 °F 62.6 °F 61% 29.94 in - SSE 8.1 mph - N/A   Clear
12:55 PM 73.4 °F 60.8 °F 65% 29.94 in - SSE 9.2 mph - N/A   Clear
1:15 PM 73.4 °F 60.8 °F 65% 29.94 in - South 6.9 mph - N/A   Clear
1:35 PM 75.2 °F 60.8 °F 61% 29.92 in 10.0 mi SSE 6.9 mph - N/A   Unknown
2:15 PM 77.0 °F 59.0 °F 54% 29.90 in 10.0 mi South 5.8 mph - N/A   Clear
2:55 PM 78.8 °F 60.8 °F 54% 29.91 in 10.0 mi SSE 6.9 mph - N/A   Clear
3:15 PM 77.0 °F 60.8 °F 57% 29.90 in 10.0 mi SSE 8.1 mph - N/A   Clear
3:35 PM 77.0 °F 60.8 °F 57% 29.89 in 10.0 mi SSE 5.8 mph - N/A   Clear
3:55 PM 77.0 °F 60.8 °F 57% 29.89 in 10.0 mi SSE 9.2 mph - N/A   Clear
4:15 PM 77.0 °F 60.8 °F 57% 29.89 in 10.0 mi SSE 8.1 mph - N/A   Clear
4:35 PM 75.2 °F 62.6 °F 65% 29.88 in 10.0 mi SSE 6.9 mph - N/A   Clear
4:55 PM 75.2 °F 62.6 °F 65% 29.86 in 10.0 mi ESE 5.8 mph - N/A   Clear
5:15 PM 73.4 °F 62.6 °F 69% 29.87 in 10.0 mi SSE 5.8 mph - N/A   Clear
5:35 PM 73.4 °F 62.6 °F 69% 29.86 in 10.0 mi SE 4.6 mph - N/A   Clear
5:55 PM 73.4 °F 64.4 °F 73% 29.85 in 10.0 mi ESE 4.6 mph - N/A   Clear
6:15 PM 73.4 °F 64.4 °F 73% 29.87 in 10.0 mi SSE 4.6 mph - N/A   Scattered Clouds
6:35 PM 71.6 °F 64.4 °F 78% 29.86 in 10.0 mi SE 3.5 mph - N/A   Mostly Cloudy
6:55 PM 71.6 °F 64.4 °F 78% 29.86 in 10.0 mi SE 4.6 mph - N/A   Mostly Cloudy
7:15 PM 71.6 °F 64.4 °F 78% 29.86 in 10.0 mi SE 3.5 mph - N/A   Overcast
7:35 PM 71.6 °F 64.4 °F 78% 29.84 in 10.0 mi SE 3.5 mph - N/A   Overcast
7:55 PM 71.6 °F 64.4 °F 78% 29.83 in 10.0 mi SSE 4.6 mph - N/A   Overcast
8:15 PM 71.6 °F 64.4 °F 78% 29.84 in 10.0 mi SSE 4.6 mph - N/A   Mostly Cloudy
8:35 PM 71.6 °F 64.4 °F 78% 29.85 in 10.0 mi SSE 5.8 mph - N/A   Scattered Clouds
8:55 PM 71.6 °F 64.4 °F 78% 29.85 in 10.0 mi South 9.2 mph - N/A Rain Light Rain
9:15 PM 69.8 °F 64.4 °F 83% 29.85 in 10.0 mi South 8.1 mph - N/A Rain Light Rain
9:35 PM 69.8 °F 64.4 °F 83% 29.85 in 10.0 mi South 9.2 mph - N/A Rain Light Rain
9:55 PM 69.8 °F 64.4 °F 83% 29.85 in 10.0 mi SSE 10.4 mph - 0.01 in Rain Light Rain
10:15 PM 69.8 °F 66.2 °F 88% 29.85 in 7.0 mi SSE 5.8 mph - 0.02 in Rain Rain
10:35 PM 68.0 °F 66.2 °F 94% 29.84 in 7.0 mi SSE 9.2 mph - 0.05 in Rain Rain
10:55 PM 68.0 °F 66.2 °F 94% 29.83 in 4.0 mi SE 8.1 mph - 0.11 in Rain Heavy Rain
11:15 PM 68.0 °F 66.2 °F 94% 29.82 in 4.0 mi SE 9.2 mph - 0.03 in Rain Rain
11:35 PM 68.0 °F 66.2 °F 94% 29.81 in 5.0 mi SE 11.5 mph - 0.05 in Rain Rain
11:55 PM 68.0 °F 66.2 °F 94% 29.79 in 5.0 mi SE 15.0 mph 20.7 mph 0.08 in Rain Light Rain